FW4370 Weather Reports


time (UTC)temp
C
wind
direction
speed
KPH
gust
KPH
rain 1hr
cm
rain 24hr
cm
rain mn
cm
humidity
%
barometer
mb
20260502123035 7 349 0.0 0.0 0.00 0.00 0.00 22 1010.8
20260502121540 6 349 0.0 0.0 0.00 0.00 0.00 22 1010.8
20260502114523 7 349 0.0 0.0 0.00 0.00 0.00 21 1010.7
20260502113018 6 349 0.0 0.0 0.00 0.00 0.00 21 1010.7
20260502111520 7 349 0.0 1.6 0.00 0.00 0.00 20 1010.7
20260502110017 7 349 0.0 0.0 0.00 0.00 0.00 20 1010.8
20260502104509 7 349 0.0 1.6 0.00 0.00 0.00 20 1010.7
20260502103005 8 17 0.0 0.0 0.00 0.00 0.00 20 1010.6
20260502101502 8 17 0.0 0.0 0.00 0.00 0.00 19 1010.7
20260502071525 11 73 0.0 0.0 0.00 0.00 0.00 16 1010.7
20260502070022 10 74 0.0 0.0 0.00 0.00 0.00 15 1010.6
20260502064517 11 74 0.0 3.2 0.00 0.00 0.00 15 1010.6
20260502063025 11 95 0.0 0.0 0.00 0.00 0.00 14 1010.4
20260502061512 11 95 0.0 0.0 0.00 0.00 0.00 13 1010.3
20260502060010 11 95 0.0 0.0 0.00 0.00 0.00 13 1010.2
20260502054508 12 95 0.0 0.0 0.00 0.00 0.00 13 1010.2
20260502053004 13 95 0.0 0.0 0.00 0.00 0.00 13 1010.0
20260502051504 14 79 0.0 8.0 0.00 0.00 0.00 13 1009.8
20260502050001 13 30 3.2 9.7 0.00 0.00 0.00 12 1009.9
20260502044559 13 316 0.0 1.6 0.00 0.00 0.00 12 1009.7
20260502043110 15 299 0.0 6.4 0.00 0.00 0.00 12 1009.4
20260502041619 15 1 0.0 4.8 0.00 0.00 0.00 11 1009.1
20260502040049 15 340 1.6 4.8 0.00 0.00 0.00 11 1009.0
20260502034548 16 43 0.0 3.2 0.00 0.00 0.00 11 1008.7
20260502033059 16 349 1.6 9.7 0.00 0.00 0.00 10 1008.4
20260502031541 16 84 3.2 9.7 0.00 0.00 0.00 10 1008.1
20260502030039 17 15 3.2 17.7 0.00 0.00 0.00 9 1007.8
20260502024537 17 23 6.4 17.7 0.00 0.00 0.00 9 1007.7
20260502023033 18 11 4.8 16.1 0.00 0.00 0.00 8 1007.3
20260502021528 18 112 3.2 22.5 0.00 0.00 0.00 8 1007.0
20260502020025 20 345 3.2 17.7 0.00 0.00 0.00 7 1006.7
20260502014527 21 302 4.8 19.3 0.00 0.00 0.00 7 1006.3
20260502013020 22 271 3.2 16.1 0.00 0.00 0.00 8 1006.0
20260502011517 22 49 8.0 19.3 0.00 0.00 0.00 8 1006.0
20260502010022 22 57 3.2 11.3 0.00 0.00 0.00 8 1005.7
20260502004515 22 330 1.6 6.4 0.00 0.00 0.00 8 1005.7
20260502003012 21 280 1.6 8.0 0.00 0.00 0.00 8 1005.7
20260502001511 21 326 3.2 9.7 0.00 0.00 0.00 8 1005.7
20260502000009 21 8 0.0 8.0 0.00 0.00 0.00 8 1005.6
20260501234507 21 325 1.6 16.1 0.00 0.00 0.00 8 1005.6
20260501233006 22 40 0.0 9.7 0.00 0.00 0.00 8 1005.6
20260501231503 21 335 0.0 14.5 0.00 0.00 0.00 8 1005.6
20260501230001 22 233 1.6 16.1 0.00 0.00 0.00 8 1005.7
20260501224559 23 240 0.0 12.9 0.00 0.00 0.00 8 1005.8
20260501223132 21 281 1.6 12.9 0.00 0.00 0.00 8 1006.0
20260501221556 22 345 1.6 12.9 0.00 0.00 0.00 8 1006.1
20260501220054 22 272 1.6 12.9 0.00 0.00 0.00 8 1006.2
20260501214555 23 306 4.8 11.3 0.00 0.00 0.00 8 1006.4
20260501213052 22 143 0.0 4.8 0.00 0.00 0.00 8 1006.5
20260501211552 21 252 3.2 9.7 0.00 0.00 0.00 8 1006.6
20260501210047 21 143 1.6 8.0 0.00 0.00 0.00 8 1006.9
20260501204555 22 304 4.8 16.1 0.00 0.00 0.00 8 1007.0
20260501203041 23 155 4.8 14.5 0.00 0.00 0.00 8 1006.9
20260501201539 22 288 6.4 16.1 0.00 0.00 0.00 9 1007.0
20260501200036 22 347 1.6 22.5 0.00 0.00 0.00 9 1007.4
20260501194534 21 229 0.0 9.7 0.00 0.00 0.00 9 1007.7
20260501193031 22 301 6.4 16.1 0.00 0.00 0.00 10 1007.9
20260501191529 22 343 6.4 14.5 0.00 0.00 0.00 10 1007.8
20260501190023 22 298 6.4 14.5 0.00 0.00 0.00 11 1008.0
20260501184520 21 293 4.8 16.1 0.00 0.00 0.00 12 1008.1
20260501183016 21 240 6.4 17.7 0.00 0.00 0.00 12 1008.1
20260501181514 20 214 4.8 12.9 0.00 0.00 0.00 13 1008.3
20260501180009 20 61 4.8 11.3 0.00 0.00 0.00 13 1008.6
20260501174505 20 118 1.6 20.9 0.00 0.00 0.00 14 1008.6
20260501173001 20 126 1.6 12.9 0.00 0.00 0.00 14 1008.7
20260501171558 19 90 0.0 9.7 0.00 0.00 0.00 15 1008.7
20260501170054 18 13 3.2 8.0 0.00 0.00 0.00 16 1008.7
20260501164551 18 94 1.6 11.3 0.00 0.00 0.00 17 1008.6
20260501163147 17 53 3.2 8.0 0.00 0.00 0.00 17 1008.7
20260501161540 17 62 3.2 12.9 0.00 0.00 0.00 18 1008.6
20260501160043 17 80 4.8 11.3 0.00 0.00 0.00 18 1008.5
20260501154532 16 89 1.6 11.3 0.00 0.00 0.00 19 1008.4
20260501153028 16 56 3.2 11.3 0.00 0.00 0.00 18 1008.3
20260501151526 16 47 0.0 4.8 0.00 0.00 0.00 19 1008.2
20260501150024 15 310 0.0 6.4 0.00 0.00 0.00 19 1008.2
20260501144516 14 344 1.6 6.4 0.00 0.00 0.00 20 1008.3
20260501143017 14 39 0.0 4.8 0.00 0.00 0.00 20 1008.2